Location: Rowland
(34.5359°N, 79.2929°W)
Time: 14:53:30
(UTC+00:00)

SR - Pass Details

Date: 04 October 2022
Orbit: 577 x 875 km, 66.7° (Epoch: 28 November)

Event Time Altitude Azimuth Distance (km) Brightness Sun altitude
Rises 00:41:41 0° 182° (S) 3,371 ? -22.0°
Reaches altitude 10° 00:44:15 10° 174° (S) 2,469 ? -22.6°
Enters shadow 00:45:24 16° 168° (SSE) 2,099 ? -22.8°
Maximum altitude 00:49:30 37° 109° (ESE) 1,329 - -23.6°
Drops below altitude 10° 00:54:50 10° 44° (NE) 2,527 - -24.7°
Sets 00:57:30 0° 36° (NE) 3,460 - -25.2°
